TimeEST,TemperatureF,Dew PointF,Humidity,Sea Level PressureIn,VisibilityMPH,Wind Direction,Wind SpeedMPH,Gust SpeedMPH,PrecipitationIn,Events,Conditions,WindDirDegrees,DateUTC
12:35 AM,30.2,24.8,80,30.04,10.0,NW,6.9,-,N/A,,Overcast,310,2012-12-11 05:35:00
12:55 AM,30.2,24.8,80,30.04,10.0,WNW,6.9,-,N/A,,Overcast,290,2012-12-11 05:55:00
1:15 AM,30.2,24.8,80,30.05,10.0,WNW,6.9,-,N/A,,Overcast,300,2012-12-11 06:15:00
1:35 AM,30.2,24.8,80,30.05,10.0,WNW,6.9,-,N/A,,Overcast,290,2012-12-11 06:35:00
1:55 AM,30.2,24.8,80,30.05,10.0,WNW,8.1,-,N/A,,Overcast,290,2012-12-11 06:55:00
2:15 AM,30.2,23.0,75,30.05,10.0,West,8.1,-,N/A,,Overcast,280,2012-12-11 07:15:00
2:35 AM,30.2,23.0,75,30.06,10.0,WNW,9.2,-,N/A,,Overcast,290,2012-12-11 07:35:00
2:55 AM,30.2,24.8,80,30.06,10.0,West,8.1,-,N/A,,Overcast,280,2012-12-11 07:55:00
3:15 AM,30.2,24.8,80,30.06,10.0,WNW,8.1,-,N/A,,Overcast,290,2012-12-11 08:15:00
3:35 AM,30.2,24.8,80,30.07,10.0,WNW,9.2,-,N/A,,Overcast,300,2012-12-11 08:35:00
3:55 AM,30.2,23.0,75,30.07,10.0,WNW,9.2,-,N/A,,Overcast,300,2012-12-11 08:55:00
4:15 AM,30.2,23.0,75,30.07,10.0,WNW,6.9,-,N/A,,Overcast,290,2012-12-11 09:15:00
4:35 AM,30.2,23.0,75,30.08,10.0,WNW,5.8,-,N/A,,Overcast,300,2012-12-11 09:35:00
4:55 AM,30.2,23.0,75,30.08,10.0,WNW,6.9,-,N/A,,Overcast,300,2012-12-11 09:55:00
5:15 AM,30.2,21.2,69,30.08,10.0,WNW,6.9,-,N/A,,Overcast,290,2012-12-11 10:15:00
5:35 AM,30.2,23.0,75,30.09,10.0,WNW,9.2,-,N/A,,Overcast,300,2012-12-11 10:35:00
5:55 AM,30.2,21.2,69,30.09,10.0,WNW,8.1,-,N/A,,Overcast,300,2012-12-11 10:55:00
6:15 AM,30.2,21.2,69,30.10,10.0,WNW,8.1,-,N/A,,Overcast,290,2012-12-11 11:15:00
6:35 AM,30.2,21.2,69,30.11,10.0,WNW,9.2,-,N/A,,Overcast,300,2012-12-11 11:35:00
6:55 AM,28.4,21.2,74,30.11,10.0,WNW,6.9,-,N/A,,Mostly Cloudy,290,2012-12-11 11:55:00
7:15 AM,28.4,21.2,74,30.12,10.0,WNW,6.9,-,N/A,,Partly Cloudy,300,2012-12-11 12:15:00
7:35 AM,28.4,21.2,74,30.12,10.0,WNW,5.8,-,N/A,,Partly Cloudy,300,2012-12-11 12:35:00
7:55 AM,26.6,21.2,80,30.13,10.0,WNW,4.6,-,N/A,,Clear,300,2012-12-11 12:55:00
8:15 AM,26.6,21.2,80,30.14,10.0,West,4.6,-,N/A,,Clear,270,2012-12-11 13:15:00
8:35 AM,26.6,21.2,80,30.15,10.0,WSW,4.6,-,N/A,,Clear,250,2012-12-11 13:35:00
8:55 AM,28.4,21.2,74,30.16,10.0,West,4.6,-,N/A,,Clear,260,2012-12-11 13:55:00
9:15 AM,28.4,21.2,74,30.16,10.0,West,5.8,-,N/A,,Clear,280,2012-12-11 14:15:00
9:35 AM,30.2,21.2,69,30.17,10.0,WNW,6.9,-,N/A,,Clear,290,2012-12-11 14:35:00
9:55 AM,30.2,21.2,69,30.18,10.0,WNW,6.9,-,N/A,,Clear,290,2012-12-11 14:55:00
10:15 AM,32.0,21.2,64,30.18,10.0,West,3.5,-,N/A,,Clear,280,2012-12-11 15:15:00
10:35 AM,32.0,19.4,60,30.19,10.0,WSW,3.5,-,N/A,,Clear,250,2012-12-11 15:35:00
10:55 AM,33.8,19.4,56,30.19,10.0,West,6.9,-,N/A,,Clear,280,2012-12-11 15:55:00
11:15 AM,33.8,21.2,60,30.19,10.0,WNW,3.5,-,N/A,,Clear,300,2012-12-11 16:15:00
11:35 AM,33.8,21.2,60,30.19,10.0,SSW,5.8,-,N/A,,Partly Cloudy,210,2012-12-11 16:35:00
11:55 AM,33.8,21.2,60,30.19,10.0,WSW,4.6,-,N/A,,Scattered Clouds,240,2012-12-11 16:55:00
12:15 PM,33.8,21.2,60,30.18,10.0,West,5.8,-,N/A,,Partly Cloudy,260,2012-12-11 17:15:00
12:36 PM,35.6,21.2,56,30.18,10.0,WSW,6.9,-,N/A,,Partly Cloudy,240,2012-12-11 17:36:00
12:55 PM,35.6,21.2,56,30.17,10.0,West,5.8,-,N/A,,Partly Cloudy,280,2012-12-11 17:55:00
1:15 PM,35.6,21.2,56,30.17,10.0,South,6.9,-,N/A,,Partly Cloudy,190,2012-12-11 18:15:00
1:35 PM,35.6,21.2,56,30.17,10.0,SSW,8.1,-,N/A,,Clear,210,2012-12-11 18:35:00
1:55 PM,35.6,23.0,60,30.17,10.0,SSW,4.6,-,N/A,,Clear,200,2012-12-11 18:55:00
2:15 PM,37.4,23.0,56,30.17,10.0,West,8.1,-,N/A,,Clear,260,2012-12-11 19:15:00
2:35 PM,37.4,23.0,56,30.17,10.0,WSW,8.1,-,N/A,,Clear,240,2012-12-11 19:35:00
2:55 PM,37.4,23.0,56,30.17,10.0,SW,6.9,-,N/A,,Clear,230,2012-12-11 19:55:00
3:15 PM,37.4,23.0,56,30.16,10.0,SW,10.4,16.1,N/A,,Clear,220,2012-12-11 20:15:00
3:35 PM,37.4,23.0,56,30.17,10.0,SSW,10.4,-,N/A,,Clear,210,2012-12-11 20:35:00
3:55 PM,37.4,23.0,56,30.17,10.0,SSW,10.4,-,N/A,,Clear,200,2012-12-11 20:55:00
4:15 PM,37.4,23.0,56,30.17,10.0,SSW,5.8,-,N/A,,Clear,210,2012-12-11 21:15:00
4:35 PM,37.4,23.0,56,30.17,10.0,SSW,5.8,-,N/A,,Clear,210,2012-12-11 21:35:00
4:55 PM,37.4,23.0,56,30.17,10.0,SSW,4.6,-,N/A,,Clear,210,2012-12-11 21:55:00
5:15 PM,35.6,21.2,56,30.17,10.0,SW,5.8,-,N/A,,Clear,230,2012-12-11 22:15:00
5:35 PM,35.6,21.2,56,30.17,10.0,SSW,3.5,-,N/A,,Clear,210,2012-12-11 22:35:00
5:55 PM,33.8,21.2,60,30.17,10.0,South,3.5,-,N/A,,Clear,180,2012-12-11 22:55:00
6:15 PM,33.8,21.2,60,30.18,10.0,South,3.5,-,N/A,,Clear,180,2012-12-11 23:15:00
6:35 PM,33.8,21.2,60,30.19,10.0,South,3.5,-,N/A,,Clear,180,2012-12-11 23:35:00
6:55 PM,30.2,21.2,69,30.19,10.0,South,4.6,-,N/A,,Clear,170,2012-12-11 23:55:00
7:15 PM,32.0,21.2,64,30.20,10.0,South,3.5,-,N/A,,Clear,190,2012-12-12 00:15:00
7:35 PM,32.0,21.2,64,30.20,10.0,SSW,4.6,-,N/A,,Clear,200,2012-12-12 00:35:00
7:55 PM,30.2,21.2,69,30.20,10.0,SSW,4.6,-,N/A,,Clear,200,2012-12-12 00:55:00
8:15 PM,30.2,21.2,69,30.21,10.0,Calm,Calm,-,N/A,,Clear,0,2012-12-12 01:15:00
8:35 PM,30.2,23.0,75,30.21,10.0,South,3.5,-,N/A,,Clear,190,2012-12-12 01:35:00
8:55 PM,30.2,21.2,69,30.22,10.0,Calm,Calm,-,N/A,,Clear,0,2012-12-12 01:55:00
9:15 PM,28.4,21.2,74,30.22,10.0,Calm,Calm,-,N/A,,Clear,0,2012-12-12 02:15:00
9:35 PM,28.4,21.2,74,30.23,10.0,Calm,Calm,-,N/A,,Clear,0,2012-12-12 02:35:00
9:55 PM,28.4,23.0,80,30.23,10.0,Calm,Calm,-,N/A,,Clear,0,2012-12-12 02:55:00
10:15 PM,28.4,21.2,74,30.24,10.0,Calm,Calm,-,N/A,,Clear,0,2012-12-12 03:15:00
10:35 PM,28.4,21.2,74,30.24,10.0,Calm,Calm,-,N/A,,Clear,0,2012-12-12 03:35:00
10:55 PM,26.6,21.2,80,30.24,10.0,SSE,3.5,-,N/A,,Clear,150,2012-12-12 03:55:00
11:15 PM,28.4,24.8,86,30.25,10.0,SSE,3.5,-,N/A,,Clear,150,2012-12-12 04:15:00
11:35 PM,26.6,23.0,86,30.25,10.0,Calm,Calm,-,N/A,,Clear,0,2012-12-12 04:35:00
11:55 PM,26.6,21.2,80,30.26,10.0,Calm,Calm,-,N/A,,Clear,0,2012-12-12 04:55:00